TimePDT,TemperatureF,Dew PointF,Humidity,Sea Level PressureIn,VisibilityMPH,Wind Direction,Wind SpeedMPH,Gust SpeedMPH,PrecipitationIn,Events,Conditions,WindDirDegrees,DateUTC
12:01 AM,91.4,48.2,23,30.02,10.0,WNW,2.3,-,N/A,,Light Drizzle,290,2013-07-26 07:01:00
12:10 AM,89.6,50.0,26,30.02,10.0,West,3.5,-,N/A,,Mostly Cloudy,280,2013-07-26 07:10:00
12:58 AM,89.2,49.5,25,30.05,10.0,ESE,10.4,-,0.00,,Partly Cloudy,120,2013-07-26 07:58:00
1:58 AM,86.5,51.3,30,30.05,10.0,SE,8.1,-,N/A,,Scattered Clouds,130,2013-07-26 08:58:00
2:58 AM,84.4,52.9,34,30.06,10.0,SSE,6.9,-,N/A,,Clear,150,2013-07-26 09:58:00
3:58 AM,84.9,52.0,32,30.06,10.0,SE,4.6,-,N/A,,Clear,140,2013-07-26 10:58:00
4:58 AM,83.8,52.7,34,30.07,10.0,ENE,1.2,-,N/A,,Clear,70,2013-07-26 11:58:00
5:58 AM,81.0,53.4,38,30.07,10.0,ESE,8.1,-,N/A,,Clear,120,2013-07-26 12:58:00
6:58 AM,81.7,56.3,42,30.09,10.0,Variable,2.3,-,N/A,,Clear,0,2013-07-26 13:58:00
7:58 AM,84.7,52.3,33,30.10,10.0,SSW,2.3,-,N/A,,Clear,200,2013-07-26 14:58:00
8:58 AM,88.5,51.8,28,30.11,10.0,ENE,1.2,-,N/A,,Clear,70,2013-07-26 15:58:00
9:58 AM,92.7,53.6,27,30.11,10.0,Variable,5.8,-,N/A,,Clear,0,2013-07-26 16:58:00
10:58 AM,95.4,52.7,24,30.11,10.0,East,5.8,-,N/A,,Clear,100,2013-07-26 17:58:00
11:58 AM,94.3,51.8,24,30.09,10.0,East,8.1,-,N/A,,Partly Cloudy,100,2013-07-26 18:58:00
12:58 PM,94.6,52.2,24,30.08,10.0,South,8.1,-,N/A,,Scattered Clouds,170,2013-07-26 19:58:00
1:58 PM,96.6,49.8,20,30.06,10.0,SSE,11.5,-,N/A,Thunderstorm,Scattered Clouds,150,2013-07-26 20:58:00
2:58 PM,93.4,49.8,23,30.04,10.0,South,19.6,-,N/A,,Scattered Clouds,170,2013-07-26 21:58:00
3:58 PM,95.4,46.4,19,30.02,10.0,South,17.3,-,N/A,,Scattered Clouds,190,2013-07-26 22:58:00
4:58 PM,98.2,48.6,18,30.02,10.0,SW,18.4,-,N/A,,Scattered Clouds,220,2013-07-26 23:58:00
5:58 PM,96.4,48.4,19,30.00,10.0,South,5.8,-,N/A,,Mostly Cloudy,190,2013-07-27 00:58:00
6:58 PM,95.2,51.8,23,30.01,10.0,East,12.7,-,N/A,,Overcast,100,2013-07-27 01:58:00
7:58 PM,93.2,49.6,23,30.03,10.0,ESE,4.6,-,N/A,,Mostly Cloudy,120,2013-07-27 02:58:00
8:58 PM,91.4,51.4,26,30.04,10.0,Calm,Calm,-,N/A,,Scattered Clouds,0,2013-07-27 03:58:00
9:58 PM,90.0,51.8,27,30.06,10.0,NE,6.9,-,N/A,,Overcast,40,2013-07-27 04:58:00
10:38 PM,89.6,53.6,29,30.07,10.0,East,2.3,-,N/A,,Light Drizzle,80,2013-07-27 05:38:00
10:48 PM,89.6,53.6,29,30.07,10.0,East,4.6,-,N/A,,Overcast,80,2013-07-27 05:48:00
10:58 PM,88.7,54.3,31,30.07,10.0,Variable,1.2,-,0.00,,Overcast,0,2013-07-27 05:58:00
11:58 PM,87.6,55.6,33,30.10,10.0,ENE,12.7,-,N/A,,Overcast,60,2013-07-27 06:58:00